sat.trackr.live / text

‹ back to catalog

GLOBALSTAR M080

NORAD 38041 · 2011-080B

PAYLOAD ACTIVE UNKNOWN

§ Identity

Operator
Country
GLOB
Launch date
2011-12-28
Launch site
TYMSC
Launch vehicle
Mass (kg)
RCS (m²)
4.55

Purposes: comms

External: N2YO · Heavens-Above · Gunter

§ Orbital elements

Epoch: 2026-09-14T23:23:22.619904Z

Period
114.08 min
Inclination
52.0046°
Eccentricity
0.0001183
Mean motion
12.62258816 rev/d
Perigee alt
1,412.7 km
Apogee alt
1,414.6 km
Semi-major
7,791.8 km
B*
6.8038e-5
RAAN
105.6902°
Arg perigee
89.1578°
Mean anomaly
58.0711°
Rev number
68,022

§ Raw data

GLOBALSTAR M0801 38041U 11080B   26257.97456736 -.00000092  00000+0  68038-4 0  99952 38041  52.0046 105.6902 0001183  89.1578  58.0711 12.62258816680220

JSON: /api/v1/satellites/38041 · /tle

For live sub-satellite position, see the globe view (requires WebGL).

§ Visibility from observer

Set your observer location to see the next 7 days of passes ≥ 10°. The values pass through the URL so the page stays shareable.

No JS? Fill the form by hand. The geolocation button needs JavaScript.